Flag for Japan Weather past 2 weeks in Sapporo, Japan

Now
72 °F

Mild.


Feels Like: 75 °F
Forecast: 61 / 76 °F
Wind: 12 mph from Southeast

Location: Sapporo

Current Time: Aug 30, 2015 at 5:26:36 PM

Latest Report: Aug 30, 2015 at 4:00 PM


Visibility: N/A

Pressure: 29.96 "Hg

Humidity: 69%

Dew point: 61 °F

Location of SapporoLocation

Historic Weather in Sapporo — Graph

°F

Sapporo temperature yesterday

Maximum temperature yesterday: 75 °F (at 2:00 PM)
Minimum temperature yesterday: 63 °F (at 11:00 PM)
Average temperature yesterday: 68 °F

Past Weeks' High & Low Weather Summary

 TemperatureHumidityPressure
High81 °F (Aug 17, 2:00 PM)94% (Aug 18, 9:00 PM)30.01 "Hg (Aug 18, 9:00 PM)
Low59 °F (Aug 25, 5:00 AM)32% (Aug 25, 3:00 PM)29.69 "Hg (Aug 22, 2:00 PM)
Average69 °F72%29.88 "Hg
* Reported Aug 15 4:00 PM — Aug 30 4:00 PM, Sapporo, Weather by CustomWeather, © 2015

Note: Actual official high and low records may vary slightly from our data, if they occured in-between our weather recording intervals... More about our weather records

Advertising

Sapporo weather history for previous 24 hours

 ConditionsComfort  
Time TempWeatherWind HumidityBarometerVisibility
4:00 PM
Sun, Aug 30
72 °FMild.12 mph69%29.96 "HgN/A
3:00 PM72 °FOvercast.10 mph69%29.96 "Hg12 mi
2:00 PM72 °FMild.12 mph68%29.96 "HgN/A
1:00 PM72 °FMild.10 mph67%29.97 "HgN/A
12:00 PM73 °FPartly sunny.13 mph64%29.97 "Hg12 mi
11:00 AM73 °FMild.9 mph64%29.98 "HgN/A
10:00 AM71 °FMild.8 mph63%29.99 "HgN/A
9:00 AM69 °FOvercast.8 mph67%30.00 "Hg12 mi
8:00 AM65 °FMild.7 mph68%30.01 "HgN/A
7:00 AM62 °FCool.3 mph70%30.01 "HgN/A
5:00 AM60 °FCool.3 mph77%30.00 "HgN/A
4:00 AM60 °FCool.3 mph79%29.99 "HgN/A
3:00 AM61 °FOvercast.5 mph77%29.98 "Hg9 mi
2:00 AM61 °FCool.2 mph78%29.99 "HgN/A
1:00 AM61 °FCool.5 mph80%29.98 "HgN/A
12:00 AM62 °FMild.5 mph79%29.98 "HgN/A
11:00 PM
Sat, Aug 29
63 °FMild.5 mph79%29.99 "HgN/A
10:00 PM64 °FMild.7 mph77%29.99 "HgN/A
9:00 PM65 °FOvercast.3 mph75%29.99 "Hg9 mi
8:00 PM66 °FMild.6 mph73%29.99 "HgN/A
7:00 PM67 °FMild.6 mph69%29.99 "HgN/A
6:00 PM69 °FPassing clouds.7 mph64%29.98 "Hg9 mi
5:00 PM71 °FMild.10 mph57%29.96 "HgN/A
Weather by CustomWeather, © 2015

See weather overviewHow to use our weather pages